Tiempo atmosférico en la estación meteorológica de Castejon De Valdejasa, Zaragoza (442 m.)



Fecha
DESCASC
Temp. máxima en grados centígrados (hora)
DESCASC
Temp. mínima en grados centígrados (hora)
DESCASC
Temp. media en grados centígrados
DESCASC
Racha de viento máxima en m/sg (hora)
DESCASC
Velocidad máxima media en intervalos de 10 minutos(hora)
DESCASC
Precipitaciones diarias en mm
DESCASC
Precipitaciones de 00:00 a 06:00 en mm
DESCASC
Precipitaciones de 06:00 a 12:00 en mm
DESCASC
Precipitaciones de 12:00 a 18:00 en mm
DESCASC
Precipitaciones de 18:00 a 24:00 en mm
DESCASC
31-03-2020 7 (23:50) -0.2 (04:40) 3.4 11.11 (22:10) 8.61 (22:10) 0.4 0 0.4 0 0
29-03-2020 14.5 (16:10) 3 (00:00) 8.8 16.94 (15:50) 10 (15:50) 0 0 0 0 0
28-03-2020 15.7 (15:50) 2.3 (00:00) 9 8.33 (13:40) 5.28 (13:20) 0 0 0 0 0
27-03-2020 11.6 (16:20) 0.5 (00:00) 6.1 7.5 (14:20) 4.72 (11:40) 0 0 0 0 0
26-03-2020 11.6 (15:30) 2.8 (00:00) 7.2 13.33 (11:40) 8.06 (12:00) 0 0 0 0 0
25-03-2020 8.9 (16:10) 3.3 (00:00) 6.1 10.28 (00:20) 8.33 (11:00) 0 0 0 0 0
24-03-2020 13.7 (11:50) 7.4 (00:00) 10.5 10.28 (23:59) 7.22 (23:59) 0.6 0 0 0 0.6
23-03-2020 15.4 (14:10) 7 (00:00) 11.2 13.33 (14:30) 7.78 (14:30) 1 0 0 0.6 0.4
22-03-2020 15.8 (16:30) 5.7 (06:50) 10.8 8.61 (16:40) 5 (13:20) 0 0 0 0 0
21-03-2020 15.3 (15:40) 5.1 (00:00) 10.2 10 (10:00) 6.67 (08:00) 0 0 0 0 0
20-03-2020 14.3 (17:00) 5.8 (00:00) 10.1 10.28 (16:30) 7.78 (04:30) 0 0 0 0 0
19-03-2020 16 (14:40) 8.4 (00:00) 12.2 10 (16:20) 7.22 (18:20) 0 0 0 0 0
18-03-2020 14.1 (16:00) 7.6 (00:00) 10.9 5.83 (13:30) 4.44 (13:30) 0 0 0 0 0
17-03-2020 12.9 (18:00) 7.2 (00:00) 10 11.94 (04:00) 8.61 (09:40) 0 0 0 0 0
16-03-2020 10.8 (20:30) 3.5 (00:00) 7.2 16.11 (19:30) 10.56 (19:30) 11.4 8.6 2.8 0 0
15-03-2020 16.8 (14:30) 6.3 (00:00) 11.5 15.28 (19:50) 11.11 (12:20) 2.4 0 0 0 2.4
14-03-2020 16.2 (16:10) 2.4 (00:00) 9.3 11.67 (14:50) 7.78 (14:30) 0 0 0 0 0
13-03-2020 14.4 (15:40) 6.8 (23:59) 10.6 9.44 (05:10) 6.67 (05:20) 0 0 0 0 0
12-03-2020 21.6 (15:00) 9.2 (00:00) 15.4 9.17 (18:50) 6.11 (18:10) 0 0 0 0 0
11-03-2020 23.6 (17:50) 7.6 (00:00) 15.6 8.89 (09:20) 5.83 (09:20) 0 0 0 0 0
10-03-2020 19.3 (16:00) 5.2 (00:00) 12.2 12.5 (00:20) 7.78 (00:10) 0 0 0 0 0
09-03-2020 11.2 (13:00) 6.1 (00:00) 8.6 18.33 (12:00) 10 (14:20) 0 0 0 0 0
08-03-2020 15.1 (15:30) 3.4 (00:00) 9.3 11.11 (13:20) 7.78 (13:20) 0 0 0 0 0
07-03-2020 12.9 (16:30) 2.9 (00:00) 7.9 17.22 (12:30) 9.72 (11:40) 0 0 0 0 0
06-03-2020 7.3 (14:30) 3.1 (00:00) 5.2 20.28 (12:00) 12.78 (14:40) 2 0 0 0.4 1.6
05-03-2020 -- (--) -- (--) -- -- (--) -- (--) -- 0 0 0 --
04-03-2020 17.7 (16:30) 6 (03:00) 11.9 11.39 (15:10) 7.22 (15:20) 0.2 0.2 0 0 0
03-03-2020 13.6 (15:50) 2.1 (00:00) 7.9 19.17 (18:40) 10.28 (19:10) 3.2 0 3.2 0 0
02-03-2020 14.6 (05:20) 2.3 (00:00) 8.5 19.72 (06:40) 12.5 (05:40) 3.6 0 3.6 0 0

Gráficas

Temp. máximas Temp. mínimas Temp. medias Precipitaciones Rachas de viento máximas Velocidades máximas media en intervalos de 10 minutos

Datos horarios

Fecha y hora oficial Temperatura (ºC) Velocidad del viento (km/h) Dirección del viento Racha (km/h) Dirección de racha Precipitación (mm) Presión (hPa) Tendencia (hPa) Humedad (%)
2020-03-31 23:00:00 6.7 28 Este 40 Este 0 -- -- 98
2020-03-31 22:00:00 5.9 23 Este 37 Este 0 -- -- 99
2020-03-31 21:00:00 2.7 5 Oeste 18 Oeste 0 -- -- 98
2020-03-31 20:00:00 2.4 13 Oeste 15 Oeste 0 -- -- 98
2020-03-31 19:00:00 2.4 7 Oeste 17 Oeste 0 -- -- 98
2020-03-31 18:00:00 2.5 14 Oeste 17 Oeste 0 -- -- 97
2020-03-31 17:00:00 2.7 10 Oeste 13 Oeste 0 -- -- 97
2020-03-31 16:00:00 2.1 6 Oeste 9 Oeste 0 -- -- 97
2020-03-31 15:00:00 1.7 6 Oeste 8 Oeste 0 -- -- 96
2020-03-31 14:00:00 1.3 3 Oeste 7 Oeste 0 -- -- 96
2020-03-31 13:00:00 0.8 4 Oeste 5 Oeste 0 -- -- 96
2020-03-31 12:00:00 0.5 3 Oeste 5 Oeste 0 -- -- 96
2020-03-31 11:00:00 0.3 3 Oeste 4 Oeste 0.4 -- -- 95
2020-03-31 10:00:00 0.1 2 Oeste 4 Oeste 0 -- -- 96
2020-03-31 09:00:00 0 0 Calma -- -- 0 -- -- 95
2020-03-31 08:00:00 0 2 Oeste 3 Oeste 0 -- -- 95
2020-03-31 07:00:00 -0.1 0 Calma 0 Calma 0 -- -- 95
2020-03-31 06:00:00 -0.1 0 Calma 3 Oeste 0 -- -- 95
2020-03-31 05:00:00 -0.2 3 Oeste 6 Oeste 0 -- -- 94
2020-03-31 04:00:00 0.3 2 Oeste 4 Oeste 0 -- -- 92
2020-03-31 03:00:00 1.4 0 Calma 5 Sudeste 0 -- -- 85
2020-03-31 02:00:00 2.6 3 Sudeste 12 Este 0 -- -- 74
2020-03-31 01:00:00 3.2 9 Este 14 Este 0 -- -- 63
2020-03-31 00:00:00 3.1 3 Oeste 11 Oeste 0 -- -- 63
2020-03-30 23:00:00 3.3 9 Oeste 13 Oeste 0 -- -- 61
2020-03-30 22:00:00 3.7 4 Oeste 15 Oeste 0 -- -- 59
2020-03-30 21:00:00 4.2 8 Noroeste 21 Oeste 0 -- -- 54
2020-03-30 20:00:00 4.7 13 Oeste 24 Oeste 0 -- -- 53
2020-03-30 19:00:00 5.1 16 Noroeste 50 Noroeste 0 -- -- 51
2020-03-30 18:00:00 6.3 27 Oeste 46 Oeste 0 -- -- 49
2020-03-30 17:00:00 7.1 24 Oeste 44 Oeste 0 -- -- 47
2020-03-30 16:00:00 6.8 23 Oeste 57 Oeste 0 -- -- 46
2020-03-30 15:00:00 6.7 28 Oeste 55 Oeste 0 -- -- 51
2020-03-30 14:00:00 5.4 30 Oeste 49 Oeste 0 -- -- 53
2020-03-30 13:00:00 4.3 24 Oeste 58 Oeste 0 -- -- 49
2020-03-30 12:00:00 4.2 29 Oeste 49 Oeste 0 -- -- 56
2020-03-30 11:00:00 2.7 27 Noroeste 49 Oeste 0 -- -- 57
2020-03-30 10:00:00 1.8 23 Oeste 51 Noroeste 0 -- -- 66
2020-03-30 09:00:00 1.2 30 Oeste 49 Oeste 0 -- -- 72
2020-03-30 08:00:00 1.2 26 Oeste 45 Oeste 0 -- -- 75
2020-03-30 07:00:00 1.4 27 Oeste 45 Oeste 0 -- -- 79
2020-03-30 06:00:00 1.4 20 Oeste 53 Oeste 0 -- -- 83
2020-03-30 05:00:00 2 26 Noroeste 53 Oeste 0 -- -- 81
2020-03-30 04:00:00 2.8 32 Oeste 57 Noroeste 0 -- -- 81
2020-03-30 03:00:00 4.4 22 Oeste 40 Oeste 0 -- -- 77
2020-03-30 02:00:00 5.4 26 Oeste 50 Noroeste 0 -- -- 81
2020-03-30 01:00:00 6.2 21 Noroeste 42 Noroeste 0 -- -- 83
2020-03-30 00:00:00 6.4 27 Oeste 55 Oeste 0 -- -- 84
2020-03-29 23:00:00 6.8 34 Noroeste 54 Oeste 0 -- -- 82
2020-03-29 22:00:00 7.5 26 Noroeste 53 Oeste 0 -- -- 75
2020-03-29 21:00:00 8 24 Noroeste 52 Oeste 0 -- -- 73
2020-03-29 20:00:00 9.2 30 Oeste 50 Oeste 0 -- -- 71
2020-03-29 19:00:00 11.7 26 Oeste 53 Noroeste 0 -- -- 60
2020-03-29 18:00:00 13.8 27 Noroeste 49 Noroeste 0 -- -- 49
2020-03-29 17:00:00 14.3 32 Noroeste 55 Noroeste 0 -- -- 50
2020-03-29 16:00:00 14.3 31 Oeste 61 Oeste 0 -- -- 51
2020-03-29 15:00:00 13.9 33 Oeste 58 Oeste 0 -- -- 47
2020-03-29 14:00:00 13.4 31 Oeste 51 Oeste 0 -- -- 52
2020-03-29 13:00:00 12 25 Noroeste 48 Oeste 0 -- -- 55
2020-03-29 12:00:00 10.1 30 Oeste 54 Oeste 0 -- -- 62
2020-03-29 11:00:00 8.5 29 Oeste 46 Oeste 0 -- -- 63
2020-03-29 10:00:00 6.6 23 Oeste 37 Oeste 0 -- -- 68
2020-03-29 09:00:00 3.8 13 Oeste 23 Oeste 0 -- -- 80
2020-03-29 08:00:00 3.1 12 Oeste 22 Oeste 0 -- -- 78
2020-03-29 07:00:00 4.2 10 Oeste 25 Oeste 0 -- -- 72
2020-03-29 06:00:00 4.3 10 Oeste 18 Oeste 0 -- -- 76
2020-03-29 05:00:00 4.6 6 Oeste 15 Sudoeste 0 -- -- 79
2020-03-29 03:00:00 6.5 8 Oeste 12 Oeste 0 -- -- 76
2020-03-29 01:00:00 7.3 7 Oeste 10 Noroeste 0 -- -- 72
2020-03-29 00:00:00 8.1 4 Oeste 5 Oeste 0 -- -- 64
2020-03-28 23:00:00 8.2 0 Calma 10 Este 0 -- -- 62
2020-03-28 22:00:00 7.6 4 Este 8 Este 0 -- -- 67
2020-03-28 21:00:00 10.5 0 Calma 5 Oeste 0 -- -- 57
2020-03-28 20:00:00 11.8 5 Oeste 15 Oeste 0 -- -- 54
2020-03-28 19:00:00 13.8 10 Oeste 20 Oeste 0 -- -- 52
2020-03-28 18:00:00 15.3 16 Oeste 25 Oeste 0 -- -- 45
2020-03-28 17:00:00 15.5 17 Oeste 25 Oeste 0 -- -- 44
2020-03-28 16:00:00 15.6 16 Oeste 25 Oeste 0 -- -- 42
2020-03-28 15:00:00 14.9 16 Oeste 28 Oeste 0 -- -- 40
2020-03-28 14:00:00 14 18 Oeste 30 Oeste 0 -- -- 47
2020-03-28 13:00:00 12.6 17 Oeste 27 Oeste 0 -- -- 55
2020-03-28 12:00:00 11.2 17 Oeste 22 Oeste 0 -- -- 61
2020-03-28 11:00:00 9.5 15 Oeste 22 Oeste 0 -- -- 65
2020-03-28 10:00:00 7.6 10 Oeste 15 Oeste 0 -- -- 70
2020-03-28 09:00:00 6.3 8 Oeste 10 Oeste 0 -- -- 73
2020-03-28 08:00:00 3.5 4 Nordeste 12 Nordeste 0 -- -- 81
2020-03-28 07:00:00 2.6 10 Nordeste 13 Nordeste 0 -- -- 77
2020-03-28 06:00:00 3.8 8 Nordeste 13 Nordeste 0 -- -- 73
2020-03-28 05:00:00 3.6 10 Nordeste 13 Nordeste 0 -- -- 75
2020-03-28 04:00:00 3.6 9 Nordeste 13 Nordeste 0 -- -- 75
2020-03-28 03:00:00 3.9 9 Nordeste 12 Nordeste 0 -- -- 74
2020-03-28 02:00:00 4.1 11 Nordeste 14 Nordeste 0 -- -- 72
2020-03-28 01:00:00 5.6 10 Nordeste 15 Nordeste 0 -- -- 69
2020-03-28 00:00:00 4.7 10 Nordeste 14 Este 0 -- -- 75
2020-03-27 23:00:00 4.8 11 Nordeste 14 Nordeste 0 -- -- 74
2020-03-27 22:00:00 6 8 Nordeste 13 Nordeste 0 -- -- 70
2020-03-27 21:00:00 7.7 5 Este 7 Nordeste 0 -- -- 67
2020-03-27 20:00:00 8.9 4 Oeste 9 Oeste 0 -- -- 62
2020-03-27 19:00:00 10.2 7 Oeste 17 Oeste 0 -- -- 59
2020-03-27 18:00:00 11.2 12 Oeste 20 Oeste 0 -- -- 55
2020-03-27 17:00:00 11.5 14 Oeste 21 Oeste 0 -- -- 56
2020-03-27 16:00:00 11.2 12 Oeste 21 Sudoeste 0 -- -- 54
2020-03-27 15:00:00 11.2 14 Oeste 27 Noroeste 0 -- -- 54
2020-03-27 14:00:00 11 5 Sudoeste 21 Sudoeste 0 -- -- 54
2020-03-27 13:00:00 9.8 12 Sudoeste 24 Oeste 0 -- -- 62
2020-03-27 12:00:00 7.8 12 Oeste 22 Oeste 0 -- -- 70
2020-03-27 11:00:00 6.8 15 Oeste 21 Sudoeste 0 -- -- 74
2020-03-27 10:00:00 5.7 12 Oeste 16 Sudoeste 0 -- -- 80
2020-03-27 09:00:00 4.6 3 Sudoeste 8 Nordeste 0 -- -- 83
2020-03-27 08:00:00 1.6 7 Nordeste 9 Nordeste 0 -- -- 93
2020-03-27 07:00:00 0.9 7 Nordeste 10 Nordeste 0 -- -- 94
2020-03-27 06:00:00 1 4 Este 7 Nordeste 0 -- -- 91
2020-03-27 05:00:00 2.1 5 Este 10 Nordeste 0 -- -- 90
2020-03-27 04:00:00 2.4 9 Este 13 Este 0 -- -- 91
2020-03-27 03:00:00 1.4 8 Este 10 Este 0 -- -- 90
2020-03-27 02:00:00 2.5 4 Este 14 Este 0 -- -- 87
2020-03-27 01:00:00 3.3 8 Este 23 Este 0 -- -- 88
2020-03-27 00:00:00 2.8 7 Nordeste 17 Sudeste 0 -- -- 87
2020-03-26 23:00:00 3.8 9 Sudeste 29 Sudeste 0 -- -- 83
2020-03-26 22:00:00 3.3 11 Sudeste 31 Este 0 -- -- 76
2020-03-26 21:00:00 5.3 12 Noroeste 35 Noroeste 0 -- -- 55
2020-03-26 20:00:00 6.5 15 Noroeste 29 Noroeste 0 -- -- 49
2020-03-26 19:00:00 8.4 18 Noroeste 43 Oeste 0 -- -- 41
2020-03-26 18:00:00 10.1 20 Noroeste 40 Noroeste 0 -- -- 40
2020-03-26 17:00:00 11.1 22 Noroeste 42 Oeste 0 -- -- 36
2020-03-26 16:00:00 11.4 22 Noroeste 46 Noroeste 0 -- -- 36
2020-03-26 15:00:00 11.3 21 Noroeste 47 Noroeste 0 -- -- 37
2020-03-26 14:00:00 10.4 27 Noroeste 44 Noroeste 0 -- -- 35
2020-03-26 13:00:00 9.8 21 Noroeste 46 Noroeste 0 -- -- 38
2020-03-26 12:00:00 9.3 29 Noroeste 48 Noroeste 0 -- -- 43
2020-03-26 11:00:00 8.6 18 Noroeste 41 Oeste 0 -- -- 48
2020-03-26 10:00:00 7.7 17 Noroeste 38 Oeste 0 -- -- 72
2020-03-26 09:00:00 6.1 22 Oeste 39 Oeste 0 -- -- 81
2020-03-26 08:00:00 5.3 23 Oeste 40 Oeste 0 -- -- 84
2020-03-26 07:00:00 4.4 20 Oeste 35 Noroeste 0 -- -- 86
2020-03-26 06:00:00 4 19 Oeste 35 Noroeste 0 -- -- 85
2020-03-26 05:00:00 4.1 18 Oeste 34 Noroeste 0 -- -- 84
2020-03-26 04:00:00 3.2 18 Oeste 33 Noroeste 0 -- -- 85
2020-03-26 03:00:00 3.4 15 Oeste 25 Oeste 0 -- -- 92
2020-03-26 02:00:00 -- 7 Oeste 9 Noroeste 0 -- -- --
2020-03-26 01:00:00 3.3 0 Calma 10 Nordeste 0 -- -- 93
2020-03-26 00:00:00 3.3 7 Nordeste 13 Este 0 -- -- 92
2020-03-25 23:00:00 3.7 9 Nordeste 12 Este 0 -- -- 91
2020-03-25 22:00:00 3.8 9 Este 14 Nordeste 0 -- -- 91
2020-03-25 21:00:00 4 10 Nordeste 20 Nordeste 0 -- -- 90
2020-03-25 20:00:00 4.9 12 Este 24 Este 0 -- -- 88
2020-03-25 19:00:00 6 19 Este 28 Este 0 -- -- 85
2020-03-25 18:00:00 7.8 18 Este 24 Sudeste 0 -- -- 81
2020-03-25 17:00:00 8.6 15 Este 25 Este 0 -- -- 79
2020-03-25 16:00:00 8.2 12 Sudeste 23 Este 0 -- -- 81
2020-03-25 15:00:00 7.4 15 Este 24 Este 0 -- -- 83
2020-03-25 14:00:00 6.5 22 Este 28 Este 0 -- -- 86
2020-03-25 13:00:00 5.9 14 Este 25 Este 0 -- -- 91
2020-03-25 12:00:00 5.3 16 Este 32 Sudeste 0 -- -- 92
2020-03-25 11:00:00 5.2 30 Este 37 Este 0 -- -- 93
2020-03-25 10:00:00 5.3 19 Este 26 Este 0 -- -- 94
2020-03-25 09:00:00 5.6 18 Este 27 Este 0 -- -- 94
2020-03-25 08:00:00 6 13 Este 18 Este 0 -- -- 95
2020-03-25 07:00:00 5.8 13 Este 26 Este 0 -- -- 93
2020-03-25 06:00:00 6 17 Este 25 Este 0 -- -- 95
2020-03-25 05:00:00 6.2 14 Este 23 Este 0 -- -- 94
2020-03-25 04:00:00 6.6 16 Este 26 Este 0 -- -- 93
2020-03-25 03:00:00 6.7 14 Este 27 Este 0 -- -- 93
2020-03-25 02:00:00 6.8 19 Este 33 Este 0 -- -- 94
2020-03-25 01:00:00 7.1 22 Este 37 Este 0 -- -- 93
2020-03-25 00:00:00 7.4 26 Este 37 Este 0 -- -- 92
2020-03-24 23:00:00 8 22 Este 31 Sudeste 0 -- -- 89
2020-03-24 22:00:00 8.9 15 Sudeste 29 Sudeste 0.4 -- -- 87
2020-03-24 21:00:00 10.3 13 Este 20 Este 0.2 -- -- 83
2020-03-24 20:00:00 11.1 7 Sudoeste 12 Sur 0 -- -- 72
2020-03-24 19:00:00 12.4 8 Sudoeste 16 Oeste 0 -- -- 68
2020-03-24 18:00:00 12.7 13 Oeste 20 Oeste 0 -- -- 66
2020-03-24 17:00:00 13.6 14 Oeste 24 Oeste 0 -- -- 68
2020-03-24 16:00:00 13 14 Oeste 21 Oeste 0 -- -- 70
2020-03-24 15:00:00 12.3 15 Oeste 23 Oeste 0 -- -- 75
2020-03-24 14:00:00 12.3 11 Oeste 23 Sudoeste 0 -- -- 75
2020-03-24 13:00:00 11.5 10 Oeste 18 Oeste 0 -- -- 76
2020-03-24 12:00:00 13 12 Este 19 Este 0 -- -- 68
2020-03-24 11:00:00 12.1 15 Este 28 Este 0 -- -- 76
2020-03-24 10:00:00 10.5 19 Este 29 Este 0 -- -- 86
2020-03-24 09:00:00 8.8 19 Este 33 Este 0 -- -- 89
2020-03-24 08:00:00 8.3 21 Este 30 Este 0 -- -- 91
2020-03-24 07:00:00 8.1 19 Este 28 Este 0 -- -- 92
2020-03-24 06:00:00 7.8 17 Este 24 Este 0 -- -- 93
2020-03-24 05:00:00 7.9 15 Este 25 Este 0 -- -- 93
2020-03-24 04:00:00 -- 19 Este 30 Este 0 -- -- --
2020-03-24 03:00:00 8.7 21 Este 33 Este 0 -- -- 92
2020-03-24 02:00:00 9.5 23 Este 31 Este 0 -- -- 92
2020-03-24 01:00:00 9.5 11 Este 22 Nordeste 0 -- -- 93
2020-03-24 00:00:00 9.6 18 Este 27 Este 0.4 -- -- 92
2020-03-23 23:00:00 9.8 12 Este 24 Este 0 -- -- 91
2020-03-23 22:00:00 10 21 Este 31 Este 0 -- -- 89
2020-03-23 21:00:00 9.5 12 Este 15 Este 0 -- -- 90
2020-03-23 20:00:00 9.8 14 Este 28 Este 0 -- -- 86
2020-03-23 19:00:00 10.2 18 Este 30 Este 0 -- -- 84
2020-03-23 18:00:00 10.6 19 Este 28 Sudeste 0 -- -- 88
2020-03-23 17:00:00 10.1 12 Este 39 Este 0.6 -- -- 88
2020-03-23 16:00:00 13 19 Sudeste 39 Sudeste 0 -- -- 70
2020-03-23 15:00:00 11.2 13 Sudeste 48 Este 0 -- -- 77
2020-03-23 14:00:00 15.3 19 Sudeste 32 Este 0 -- -- 61
2020-03-23 13:00:00 13.7 22 Este 36 Este 0 -- -- 68
2020-03-23 12:00:00 12.4 18 Este 32 Este 0 -- -- 74
2020-03-23 11:00:00 13.6 19 Este 30 Este 0 -- -- 71
2020-03-23 10:00:00 10.6 20 Este 28 Este 0 -- -- 82
2020-03-23 09:00:00 10.1 18 Este 27 Este 0 -- -- 84
2020-03-23 08:00:00 8.1 9 Este 12 Este 0 -- -- 92
2020-03-23 07:00:00 7.2 7 Este 12 Este 0 -- -- 93
2020-03-23 06:00:00 7.5 8 Este 18 Este 0 -- -- 89
2020-03-23 05:00:00 8.5 12 Este 20 Este 0 -- -- 89
2020-03-23 04:00:00 9 16 Este 23 Este 0 -- -- 87
2020-03-23 03:00:00 8.1 8 Este 10 Nordeste 0 -- -- 87
2020-03-23 02:00:00 8 6 Este 22 Nordeste 0 -- -- 84
2020-03-23 01:00:00 8.1 12 Nordeste 15 Nordeste 0 -- -- 85
2020-03-23 00:00:00 8.2 11 Este 15 Este 0 -- -- 84
2020-03-22 23:00:00 8.3 9 Este 15 Nordeste 0 -- -- 83
2020-03-22 22:00:00 9 10 Este 17 Nordeste 0 -- -- 81
2020-03-22 21:00:00 9.6 10 Este 17 Este 0 -- -- 79
2020-03-22 20:00:00 10.2 13 Este 19 Sudeste 0 -- -- 79
2020-03-22 19:00:00 12.2 11 Sudeste 20 Sudeste 0 -- -- 72
2020-03-22 18:00:00 14.4 13 Sudeste 28 Este 0 -- -- 58
2020-03-22 17:00:00 15.5 12 Este 31 Este 0 -- -- 51
2020-03-22 16:00:00 15.4 12 Sudeste 25 Este 0 -- -- 52
2020-03-22 15:00:00 14.5 15 Sudeste 24 Sudeste 0 -- -- 55
2020-03-22 14:00:00 14.5 5 Este 25 Este 0 -- -- 60
2020-03-22 13:00:00 14.3 13 Este 21 Este 0 -- -- 56
2020-03-22 12:00:00 13.6 6 Este 18 Este 0 -- -- 61
2020-03-22 11:00:00 11.6 7 Este 14 Este 0 -- -- 68
2020-03-22 10:00:00 10.4 5 Este 7 Este 0 -- -- 71
2020-03-22 09:00:00 9.6 3 Este 10 Nordeste 0 -- -- 78
2020-03-22 08:00:00 5.7 9 Este 14 Este 0 -- -- 88
2020-03-22 07:00:00 5.8 10 Nordeste 15 Este 0 -- -- 87
2020-03-22 06:00:00 6.3 8 Este 14 Nordeste 0 -- -- 82
2020-03-22 05:00:00 6.9 10 Este 21 Este 0 -- -- 80
2020-03-22 04:00:00 7.5 17 Nordeste 22 Este 0 -- -- 77
2020-03-22 03:00:00 7.6 14 Este 22 Este 0 -- -- 73
2020-03-22 02:00:00 8.1 12 Este 17 Este 0 -- -- 70
2020-03-22 01:00:00 8.3 13 Este 20 Este 0 -- -- 70
2020-03-22 00:00:00 8.5 15 Este 21 Este 0 -- -- 70
2020-03-21 23:00:00 9.1 16 Este 21 Este 0 -- -- 65
2020-03-21 22:00:00 9 12 Este 16 Este 0 -- -- 66
2020-03-21 21:00:00 9.7 11 Este 15 Este 0 -- -- 66
2020-03-21 20:00:00 10.8 11 Este 15 Este 0 -- -- 65
2020-03-21 19:00:00 12.6 8 Este 20 Este 0 -- -- 58
2020-03-21 18:00:00 14.3 12 Este 29 Este 0 -- -- 52
2020-03-21 17:00:00 15 17 Este 28 Este 0 -- -- 50
2020-03-21 16:00:00 15.3 14 Sudeste 29 Sudeste 0 -- -- 47
2020-03-21 15:00:00 15.1 14 Sudeste 27 Este 0 -- -- 46
2020-03-21 14:00:00 14.8 14 Este 29 Este 0 -- -- 55
2020-03-21 13:00:00 13.7 19 Este 34 Este 0 -- -- 52
2020-03-21 12:00:00 13.1 17 Este 28 Sudeste 0 -- -- 55
2020-03-21 11:00:00 11.6 14 Sudeste 32 Este 0 -- -- 63
2020-03-21 10:00:00 10.1 22 Este 36 Este 0 -- -- 64
2020-03-21 09:00:00 8.2 20 Este 32 Este 0 -- -- 79
2020-03-21 08:00:00 6 24 Este 31 Este 0 -- -- 89
2020-03-21 07:00:00 5.2 15 Este 22 Este 0 -- -- 91
2020-03-21 06:00:00 5.5 16 Este 23 Este 0 -- -- 86
2020-03-21 05:00:00 5.9 15 Este 22 Nordeste 0 -- -- 85
2020-03-21 04:00:00 5.9 6 Este 15 Este 0 -- -- 89
2020-03-21 03:00:00 6.5 13 Este 24 Este 0 -- -- 88
2020-03-21 02:00:00 6.9 13 Este 19 Este 0 -- -- 86
2020-03-21 01:00:00 7.5 10 Nordeste 21 Nordeste 0 -- -- 81
2020-03-21 00:00:00 8.3 15 Este 25 Este 0 -- -- 78
2020-03-20 23:00:00 8.6 16 Este 27 Este 0 -- -- 78
2020-03-20 22:00:00 9.1 19 Este 29 Este 0 -- -- 77
2020-03-20 21:00:00 10 12 Este 18 Sudeste 0 -- -- 73
2020-03-20 20:00:00 10.7 12 Este 24 Este 0 -- -- 73
2020-03-20 19:00:00 12.2 18 Este 27 Este 0 -- -- 68
2020-03-20 18:00:00 13.5 13 Sudeste 32 Este 0 -- -- 61
2020-03-20 17:00:00 14.3 19 Este 37 Sudeste 0 -- -- 61
2020-03-20 16:00:00 13.6 22 Este 35 Este 0 -- -- 63
2020-03-20 15:00:00 13.7 22 Este 37 Este 0 -- -- 66
2020-03-20 14:00:00 13.5 18 Este 33 Sudeste 0 -- -- 65
2020-03-20 13:00:00 13 21 Este 36 Sudeste 0 -- -- 65
2020-03-20 12:00:00 11.7 17 Sudeste 31 Este 0 -- -- 70
2020-03-20 11:00:00 11 16 Este 28 Sudeste 0 -- -- 76
2020-03-20 10:00:00 8.5 16 Este 27 Este 0 -- -- 85
2020-03-20 09:00:00 6.6 22 Este 32 Este 0 -- -- 91
2020-03-20 08:00:00 6.1 22 Este 28 Este 0 -- -- 91
2020-03-20 07:00:00 6.1 19 Este 32 Este 0 -- -- 89
2020-03-20 06:00:00 6.3 23 Este 34 Este 0 -- -- 87
2020-03-20 05:00:00 6.3 24 Este 35 Este 0 -- -- 84
2020-03-20 04:00:00 6.9 25 Este 35 Este 0 -- -- 79
2020-03-20 03:00:00 7.3 23 Este 34 Este 0 -- -- 74
2020-03-20 02:00:00 7.9 19 Este 34 Este 0 -- -- 66
2020-03-20 01:00:00 8.3 26 Este 36 Este 0 -- -- 68
2020-03-20 00:00:00 9.1 26 Este 35 Este 0 -- -- 66
2020-03-19 23:00:00 9.5 17 Este 26 Este 0 -- -- 69
2020-03-19 22:00:00 10.1 19 Este 26 Este 0 -- -- 62
2020-03-19 21:00:00 10.8 10 Este 19 Este 0 -- -- 77
2020-03-19 20:00:00 11.7 11 Este 25 Este 0 -- -- 76
2020-03-19 19:00:00 12.9 14 Este 35 Este 0 -- -- 71
2020-03-19 18:00:00 14.4 21 Este 30 Este 0 -- -- 72
2020-03-19 17:00:00 15.3 18 Este 36 Este 0 -- -- 69
2020-03-19 16:00:00 15.5 18 Este 28 Sudeste 0 -- -- 63
2020-03-19 15:00:00 15.9 18 Este 30 Este 0 -- -- 63
2020-03-19 14:00:00 15.9 16 Este 25 Este 0 -- -- 67
2020-03-19 13:00:00 15.6 9 Sudeste 21 Sudeste 0 -- -- 65
2020-03-19 12:00:00 15 9 Este 23 Este 0 -- -- 69
2020-03-19 11:00:00 13.2 14 Este 21 Este 0 -- -- 75
2020-03-19 10:00:00 11.5 13 Este 21 Este 0 -- -- 87
2020-03-19 09:00:00 10.9 10 Este 15 Este 0 -- -- 91
2020-03-19 08:00:00 9 11 Este 13 Este 0 -- -- 91
2020-03-19 07:00:00 8.8 11 Este 14 Este 0 -- -- 91
2020-03-19 06:00:00 8.7 10 Este 19 Nordeste 0 -- -- 93
2020-03-19 05:00:00 8.7 12 Este 20 Nordeste 0 -- -- 92
2020-03-19 04:00:00 8.9 13 Este 19 Nordeste 0 -- -- 93
2020-03-19 03:00:00 9.1 8 Este 14 Nordeste 0 -- -- 92
2020-03-19 02:00:00 9.6 9 Nordeste 13 Nordeste 0 -- -- 91
2020-03-19 01:00:00 9.7 9 Este 15 Este 0 -- -- 91
2020-03-19 00:00:00 9.7 12 Este 15 Este 0 -- -- 84
2020-03-18 23:00:00 9.8 10 Nordeste 12 Nordeste 0 -- -- 73
2020-03-18 22:00:00 9.6 8 Nordeste 11 Nordeste 0 -- -- 76
2020-03-18 21:00:00 10.1 7 Nordeste 10 Nordeste 0 -- -- 84
2020-03-18 20:00:00 10.9 7 Nordeste 11 Nordeste 0 -- -- 82
2020-03-18 19:00:00 12.1 6 Este 9 Este 0 -- -- 81
2020-03-18 18:00:00 13.1 3 Sudoeste 11 Oeste 0 -- -- 89
2020-03-18 17:00:00 13.7 8 Oeste 12 Oeste 0 -- -- 89
2020-03-18 16:00:00 14.1 5 Sudoeste 10 Sudoeste 0 -- -- 86
2020-03-18 15:00:00 13.6 8 Oeste 14 Oeste 0 -- -- 88
2020-03-18 14:00:00 13 12 Oeste 21 Sudoeste 0 -- -- 90
2020-03-18 13:00:00 13.5 13 Oeste 17 Sudoeste 0 -- -- 88
2020-03-18 12:00:00 12.8 12 Oeste 15 Oeste 0 -- -- 90
2020-03-18 11:00:00 12 8 Oeste 11 Oeste 0 -- -- 92
2020-03-18 10:00:00 11.3 0 Calma 6 Nordeste 0 -- -- 94
2020-03-18 09:00:00 9 6 Nordeste 9 Nordeste 0 -- -- 97
2020-03-18 08:00:00 8.3 8 Nordeste 12 Nordeste 0 -- -- 96
2020-03-18 07:00:00 8 10 Nordeste 12 Nordeste 0 -- -- 96
2020-03-18 06:00:00 8.4 8 Nordeste 12 Nordeste 0 -- -- 93
2020-03-18 05:00:00 8.7 8 Nordeste 12 Nordeste 0 -- -- 94
2020-03-18 04:00:00 8.3 9 Nordeste 12 Nordeste 0 -- -- 94
2020-03-18 03:00:00 8.6 10 Nordeste 13 Nordeste 0 -- -- 94
2020-03-18 02:00:00 8.2 10 Nordeste 12 Nordeste 0 -- -- 95
2020-03-18 01:00:00 8.5 8 Nordeste 12 Nordeste 0 -- -- 93
2020-03-18 00:00:00 8.9 8 Nordeste 12 Nordeste 0 -- -- 93
2020-03-17 23:00:00 8.9 8 Nordeste 12 Nordeste 0 -- -- 92
2020-03-17 22:00:00 9.2 9 Nordeste 11 Nordeste 0 -- -- 93
2020-03-17 21:00:00 9.7 2 Nordeste 8 Nordeste 0 -- -- 94
2020-03-17 20:00:00 10.2 3 Nordeste 9 Oeste 0 -- -- 95
2020-03-17 19:00:00 12.3 7 Este 17 Sudeste 0 -- -- 82
2020-03-17 18:00:00 12.9 11 Este 22 Este 0 -- -- 82
2020-03-17 17:00:00 12.6 16 Este 26 Este 0 -- -- 83
2020-03-17 16:00:00 12.3 14 Este 30 Este 0 -- -- 86
2020-03-17 15:00:00 11.8 19 Este 29 Sudeste 0 -- -- 86
2020-03-17 14:00:00 11.9 27 Este 40 Este 0 -- -- 85
2020-03-17 13:00:00 12 30 Este 40 Este 0 -- -- 83
2020-03-17 12:00:00 11.2 27 Este 38 Este 0 -- -- 88
2020-03-17 11:00:00 10.9 21 Este 29 Este 0 -- -- 85
2020-03-17 10:00:00 10.1 22 Este 43 Este 0 -- -- 86
2020-03-17 09:00:00 10.5 25 Este 40 Este 0 -- -- 80
2020-03-17 08:00:00 10.2 26 Este 40 Este 0 -- -- 82
2020-03-17 07:00:00 10.2 19 Este 32 Este 0 -- -- 83
2020-03-17 06:00:00 10.8 26 Este 42 Este 0 -- -- 79
2020-03-17 05:00:00 10.8 26 Este 42 Este 0 -- -- 82
2020-03-17 04:00:00 10.6 24 Este 43 Este 0 -- -- 84
2020-03-17 03:00:00 10.5 24 Este 38 Este 0 -- -- 85
2020-03-17 02:00:00 10.4 24 Este 39 Este 0 -- -- 85
2020-03-17 01:00:00 8 13 Este 19 Este 0 -- -- 99
2020-03-17 00:00:00 7.2 4 Este 13 Oeste 0 -- -- 98
2020-03-16 23:00:00 7.1 4 Oeste 11 Oeste 0 -- -- 97
2020-03-16 22:00:00 7.3 5 Oeste 35 Este 0 -- -- 96
2020-03-16 21:00:00 10.7 29 Este 57 Este 0 -- -- 80
2020-03-16 20:00:00 10.5 36 Este 58 Este 0 -- -- 83
2020-03-16 19:00:00 9.6 35 Este 53 Este 0 -- -- 98
2020-03-16 18:00:00 6.2 4 Oeste 16 Nordeste 0 -- -- 99
2020-03-16 17:00:00 5.3 2 Noroeste 7 Noroeste 0 -- -- 99
2020-03-16 16:00:00 4.2 5 Oeste 10 Oeste 0 -- -- 99
2020-03-16 15:00:00 3.7 11 Oeste 17 Oeste 0 -- -- 99
2020-03-16 14:00:00 3.5 13 Oeste 22 Oeste 0 -- -- 98
2020-03-16 13:00:00 4.5 9 Noroeste 23 Oeste 0 -- -- 98
2020-03-16 12:00:00 4.1 5 Oeste 12 Oeste 0 -- -- 98
2020-03-16 11:00:00 4.1 8 Oeste 17 Oeste 0.4 -- -- 98
2020-03-16 10:00:00 4.3 13 Oeste 20 Oeste 0 -- -- 98
2020-03-16 09:00:00 5 14 Oeste 23 Oeste 1.6 -- -- 98
2020-03-16 08:00:00 5.3 5 Noroeste 17 Oeste 0 -- -- 98
2020-03-16 07:00:00 5.9 8 Oeste 21 Oeste 0.8 -- -- 97
2020-03-16 06:00:00 6.3 13 Oeste 20 Oeste 0 -- -- 97
2020-03-16 05:00:00 7.2 13 Oeste 28 Este 0 -- -- 96
2020-03-16 04:00:00 8.9 16 Este 24 Sudeste 0.4 -- -- 95
2020-03-16 03:00:00 9 14 Este 20 Este 1.6 -- -- 94
2020-03-16 02:00:00 8.9 9 Este 22 Este 0.8 -- -- 93
2020-03-16 01:00:00 9 4 Nordeste 28 Oeste 5.8 -- -- 93
2020-03-16 00:00:00 9.5 16 Este 44 Este 0.4 -- -- 93
2020-03-15 23:00:00 9.8 28 Este 42 Este 0 -- -- 91
2020-03-15 22:00:00 10.1 34 Este 52 Este 0 -- -- 91
2020-03-15 21:00:00 10.7 36 Este 50 Este 0 -- -- 91
2020-03-15 20:00:00 11.4 32 Este 55 Este 0 -- -- 90
2020-03-15 19:00:00 12.2 35 Este 48 Este 2 -- -- 88
2020-03-15 18:00:00 14 38 Este 51 Este 0 -- -- 73
2020-03-15 17:00:00 15.3 35 Este 47 Este 0 -- -- 65
2020-03-15 16:00:00 14.6 7 Este 48 Sudeste 0 -- -- 67
2020-03-15 15:00:00 15.1 30 Este 49 Este 0 -- -- 64
2020-03-15 14:00:00 16 36 Este 50 Este 0 -- -- 60
2020-03-15 13:00:00 14.6 37 Este 51 Este 0 -- -- 64
2020-03-15 12:00:00 13.9 36 Este 50 Este 0 -- -- 65
2020-03-15 11:00:00 12.6 36 Este 50 Este 0 -- -- 71
2020-03-15 10:00:00 11.3 32 Este 43 Este 0 -- -- 75
2020-03-15 09:00:00 9.4 20 Este 29 Este 0 -- -- 76
2020-03-15 08:00:00 6.9 23 Este 30 Este 0 -- -- 89
2020-03-15 07:00:00 6.8 23 Este 28 Este 0 -- -- 88
2020-03-15 06:00:00 7.3 15 Este 26 Este 0 -- -- 88
2020-03-15 05:00:00 7.7 18 Este 24 Este 0 -- -- 87
2020-03-15 04:00:00 7.6 11 Este 18 Este 0 -- -- 82
2020-03-15 03:00:00 7.7 13 Nordeste 18 Este 0 -- -- 75
2020-03-15 02:00:00 6.7 11 Nordeste 17 Nordeste 0 -- -- 67
2020-03-15 01:00:00 7.5 13 Nordeste 17 Este 0 -- -- 60
2020-03-15 00:00:00 -- 10 Este 15 Este 0 -- -- --
2020-03-14 23:00:00 5.8 8 Nordeste 15 Este 0 -- -- 68
2020-03-14 22:00:00 8.8 6 Nordeste 10 Nordeste 0 -- -- 63
2020-03-14 21:00:00 10 3 Oeste 7 Oeste 0 -- -- 61
2020-03-14 20:00:00 10.4 3 Oeste 16 Noroeste 0 -- -- 61
2020-03-14 19:00:00 13.4 14 Oeste 29 Oeste 0 -- -- 51
2020-03-14 18:00:00 15.2 21 Oeste 35 Oeste 0 -- -- 44
2020-03-14 17:00:00 16 23 Oeste 36 Oeste 0 -- -- 38
2020-03-14 16:00:00 16.1 23 Oeste 39 Oeste 0 -- -- 39
2020-03-14 15:00:00 15.5 27 Oeste 42 Oeste 0 -- -- 42
2020-03-14 14:00:00 14.5 24 Oeste 36 Oeste 0 -- -- 46
2020-03-14 13:00:00 12.7 22 Oeste 35 Oeste 0 -- -- 48
2020-03-14 12:00:00 11 26 Oeste 37 Oeste 0 -- -- 51
2020-03-14 11:00:00 9.5 20 Oeste 35 Oeste 0 -- -- 57
2020-03-14 10:00:00 7.1 18 Oeste 28 Oeste 0 -- -- 71
2020-03-14 09:00:00 4.9 15 Oeste 26 Oeste 0 -- -- 85
2020-03-14 08:00:00 3 10 Oeste 17 Oeste 0 -- -- 93
2020-03-14 07:00:00 2.4 11 Oeste 22 Oeste 0 -- -- 94
2020-03-14 06:00:00 4 19 Oeste 26 Oeste 0 -- -- 90
2020-03-14 05:00:00 3.9 13 Oeste 24 Oeste 0 -- -- 91
2020-03-14 04:00:00 4.4 11 Oeste 21 Oeste 0 -- -- 88
2020-03-14 03:00:00 4.5 12 Oeste 17 Oeste 0 -- -- 89
2020-03-14 02:00:00 5.2 2 Oeste 9 Oeste 0 -- -- 87
2020-03-14 01:00:00 5.4 5 Oeste 19 Oeste 0 -- -- 87
2020-03-14 00:00:00 6.8 8 Oeste 14 Oeste 0 -- -- 83
2020-03-13 23:00:00 7.4 2 Noroeste 9 Oeste 0 -- -- 84
2020-03-13 22:00:00 7.4 8 Oeste 12 Oeste 0 -- -- 87
2020-03-13 21:00:00 9.1 8 Oeste 15 Oeste 0 -- -- 82
2020-03-13 20:00:00 10.6 11 Oeste 22 Oeste 0 -- -- 75
2020-03-13 19:00:00 11.5 10 Oeste 19 Noroeste 0 -- -- 72
2020-03-13 18:00:00 11.8 8 Oeste 24 Noroeste 0 -- -- 70
2020-03-13 17:00:00 12.4 13 Oeste 22 Oeste 0 -- -- 71
2020-03-13 16:00:00 13.8 15 Oeste 22 Oeste 0 -- -- 69
2020-03-13 15:00:00 14.1 14 Oeste 23 Oeste 0 -- -- 66
2020-03-13 14:00:00 13.7 13 Sudoeste 19 Oeste 0 -- -- 65
2020-03-13 13:00:00 12.3 14 Oeste 27 Oeste 0 -- -- 69
2020-03-13 12:00:00 11.7 17 Oeste 28 Oeste 0 -- -- 71
2020-03-13 11:00:00 10.5 20 Oeste 29 Oeste 0 -- -- 75
2020-03-13 10:00:00 8.9 18 Oeste 31 Oeste 0 -- -- 79
2020-03-13 09:00:00 7.6 13 Oeste 30 Oeste 0 -- -- 84
2020-03-13 08:00:00 7.2 15 Oeste 27 Oeste 0 -- -- 84
2020-03-13 07:00:00 7.5 16 Oeste 33 Oeste 0 -- -- 85
2020-03-13 06:00:00 8 18 Oeste 34 Oeste 0 -- -- 87
2020-03-13 05:00:00 8.3 21 Oeste 31 Oeste 0 -- -- 89
2020-03-13 04:00:00 8.5 21 Oeste 31 Oeste 0 -- -- 89
2020-03-13 03:00:00 9.1 19 Oeste 32 Oeste 0 -- -- 88
2020-03-13 02:00:00 9.1 20 Oeste 29 Oeste 0 -- -- 90
2020-03-13 01:00:00 9.1 17 Oeste 31 Oeste 0 -- -- 90
2020-03-13 00:00:00 9.4 18 Oeste 27 Noroeste 0 -- -- 89
2020-03-12 23:00:00 9.6 12 Oeste 22 Oeste 0 -- -- 89
2020-03-12 22:00:00 10.7 15 Oeste 22 Oeste 0 -- -- 86
2020-03-12 21:00:00 11.6 14 Oeste 20 Sudoeste 0 -- -- 82
2020-03-12 20:00:00 12.9 14 Oeste 31 Oeste 0 -- -- 77
2020-03-12 19:00:00 15.7 13 Oeste 33 Noroeste 0 -- -- 66
2020-03-12 18:00:00 18.6 15 Noroeste 30 Noroeste 0 -- -- 59
2020-03-12 17:00:00 20.3 17 Oeste 23 Oeste 0 -- -- 59
2020-03-12 16:00:00 21.4 15 Oeste 22 Oeste 0 -- -- 57
2020-03-12 15:00:00 21.6 10 Oeste 15 Sudoeste 0 -- -- 51
2020-03-12 14:00:00 19.2 7 Oeste 12 Sudoeste 0 -- -- 60
2020-03-12 13:00:00 17.4 10 Oeste 17 Oeste 0 -- -- 64
2020-03-12 12:00:00 16.3 12 Oeste 15 Oeste 0 -- -- 69
2020-03-12 11:00:00 15.7 2 Sudoeste 8 Oeste 0 -- -- 69
2020-03-12 10:00:00 13.9 5 Oeste 10 Oeste 0 -- -- 71
2020-03-12 09:00:00 15.2 5 Este 17 Nordeste 0 -- -- 61
2020-03-12 08:00:00 13.9 13 Nordeste 21 Este 0 -- -- 61
2020-03-12 07:00:00 13.4 17 Este 22 Este 0 -- -- 62
2020-03-12 06:00:00 14 10 Este 20 Este 0 -- -- 56
2020-03-12 05:00:00 14.2 14 Nordeste 22 Nordeste 0 -- -- 53
2020-03-12 04:00:00 14.5 11 Nordeste 16 Nordeste 0 -- -- 50
2020-03-12 03:00:00 13.3 13 Nordeste 18 Nordeste 0 -- -- 54
2020-03-12 02:00:00 14.8 10 Nordeste 14 Nordeste 0 -- -- 47
2020-03-12 01:00:00 15.8 10 Nordeste 14 Este 0 -- -- 43
2020-03-12 00:00:00 15.3 13 Este 17 Nordeste 0 -- -- 45
2020-03-11 23:00:00 15.8 10 Nordeste 15 Este 0 -- -- 44
2020-03-11 22:00:00 15.1 11 Nordeste 14 Nordeste 0 -- -- 44
2020-03-11 21:00:00 15.1 10 Nordeste 16 Nordeste 0 -- -- 41
2020-03-11 20:00:00 16.5 10 Nordeste 13 Nordeste 0 -- -- 39
2020-03-11 19:00:00 19.5 8 Nordeste 11 Nordeste 0 -- -- 38
2020-03-11 18:00:00 23.4 3 Noroeste 6 Sudoeste 0 -- -- 32
2020-03-11 17:00:00 22.6 3 Oeste 13 Sur 0 -- -- 35
2020-03-11 16:00:00 21.8 10 Sudoeste 16 Sudoeste 0 -- -- 39
2020-03-11 15:00:00 20.2 11 Sudoeste 23 Sudoeste 0 -- -- 48
2020-03-11 14:00:00 18.9 17 Oeste 23 Sudoeste 0 -- -- 54
2020-03-11 13:00:00 17.2 17 Oeste 23 Oeste 0 -- -- 59
2020-03-11 12:00:00 15.5 18 Oeste 25 Oeste 0 -- -- 64
2020-03-11 11:00:00 13.9 20 Oeste 26 Oeste 0 -- -- 66
2020-03-11 10:00:00 12.7 16 Oeste 32 Noroeste 0 -- -- 68
2020-03-11 09:00:00 11.6 15 Noroeste 31 Noroeste 0 -- -- 68
2020-03-11 08:00:00 8.2 3 Oeste 10 Oeste 0 -- -- 78
2020-03-11 07:00:00 7.7 10 Oeste 18 Oeste 0 -- -- 77
2020-03-11 06:00:00 8.5 15 Oeste 19 Oeste 0 -- -- 69
2020-03-11 05:00:00 9 12 Oeste 24 Oeste 0 -- -- 60
2020-03-11 04:00:00 9.2 7 Oeste 13 Oeste 0 -- -- 58
2020-03-11 03:00:00 8.9 10 Oeste 14 Noroeste 0 -- -- 56
2020-03-11 02:00:00 9.7 9 Noroeste 16 Oeste 0 -- -- 49
2020-03-11 01:00:00 10.7 8 Oeste 12 Oeste 0 -- -- 43
2020-03-11 00:00:00 11.2 5 Oeste 11 Noroeste 0 -- -- 43
2020-03-10 23:00:00 12.5 4 Oeste 8 Oeste 0 -- -- 41
2020-03-10 22:00:00 13 3 Noroeste 10 Oeste 0 -- -- 45
2020-03-10 21:00:00 14 8 Noroeste 16 Oeste 0 -- -- 42
2020-03-10 20:00:00 14.6 8 Oeste 12 Oeste 0 -- -- 42
2020-03-10 19:00:00 16.1 4 Oeste 14 Oeste 0 -- -- 44
2020-03-10 18:00:00 18.4 9 Oeste 25 Oeste 0 -- -- 36
2020-03-10 17:00:00 18.5 20 Oeste 33 Oeste 0 -- -- 36
2020-03-10 16:00:00 19.3 19 Oeste 32 Oeste 0 -- -- 37
2020-03-10 15:00:00 18 21 Oeste 33 Oeste 0 -- -- 41
2020-03-10 14:00:00 17.3 22 Oeste 42 Oeste 0 -- -- 44
2020-03-10 13:00:00 15.5 22 Oeste 35 Oeste 0 -- -- 50
2020-03-10 12:00:00 14.1 19 Oeste 30 Oeste 0 -- -- 55
2020-03-10 11:00:00 10.1 13 Oeste 19 Oeste 0 -- -- 73
2020-03-10 10:00:00 7.7 12 Oeste 21 Oeste 0 -- -- 81
2020-03-10 09:00:00 5.8 13 Oeste 27 Oeste 0 -- -- 88
2020-03-10 08:00:00 6.3 17 Oeste 33 Oeste 0 -- -- 83
2020-03-10 07:00:00 6.5 21 Oeste 34 Oeste 0 -- -- 81
2020-03-10 06:00:00 6.8 22 Oeste 34 Oeste 0 -- -- 79
2020-03-10 05:00:00 6.4 25 Oeste 39 Oeste 0 -- -- 80
2020-03-10 04:00:00 6.1 24 Oeste 40 Oeste 0 -- -- 81
2020-03-10 03:00:00 6.5 24 Oeste 41 Oeste 0 -- -- 79
2020-03-10 02:00:00 6.2 18 Oeste 39 Oeste 0 -- -- 80
2020-03-10 01:00:00 6.9 23 Oeste 45 Oeste 0 -- -- 77
2020-03-10 00:00:00 6.6 22 Oeste 37 Oeste 0 -- -- 81
2020-03-09 23:00:00 7.4 20 Noroeste 41 Oeste 0 -- -- 76
2020-03-09 22:00:00 7.2 23 Oeste 46 Noroeste 0 -- -- 74
2020-03-09 21:00:00 7 24 Noroeste 43 Noroeste 0 -- -- 73
2020-03-09 20:00:00 7.5 21 Noroeste 41 Noroeste 0 -- -- 71
2020-03-09 19:00:00 8.2 27 Noroeste 51 Noroeste 0 -- -- 69
2020-03-09 18:00:00 9.5 25 Noroeste 48 Oeste 0 -- -- 66
2020-03-09 17:00:00 10.7 23 Noroeste 49 Oeste 0 -- -- 62
2020-03-09 16:00:00 10.3 27 Noroeste 52 Noroeste 0 -- -- 63
2020-03-09 15:00:00 10.1 23 Noroeste 58 Oeste 0 -- -- 65
2020-03-09 14:00:00 10.8 32 Oeste 57 Oeste 0 -- -- 59
2020-03-09 13:00:00 11.2 28 Oeste 57 Noroeste 0 -- -- 60
2020-03-09 12:00:00 9.8 32 Noroeste 66 Noroeste 0 -- -- 65
2020-03-09 11:00:00 9.1 28 Noroeste 53 Oeste 0 -- -- 68
2020-03-09 10:00:00 7.7 24 Oeste 39 Oeste 0 -- -- 75
2020-03-09 09:00:00 -- 21 Oeste 34 Noroeste 0 -- -- --
2020-03-09 08:00:00 6.3 21 Noroeste 44 Oeste 0 -- -- 77
2020-03-09 07:00:00 6.5 17 Noroeste 35 Oeste 0 -- -- 76
2020-03-09 06:00:00 6.9 17 Noroeste 32 Oeste 0 -- -- 77
2020-03-09 05:00:00 7.5 21 Noroeste 41 Noroeste 0 -- -- 75
2020-03-09 04:00:00 8.1 22 Noroeste 42 Noroeste 0 -- -- 75
2020-03-09 03:00:00 8.3 19 Noroeste 34 Noroeste 0 -- -- 76
2020-03-09 02:00:00 8.6 17 Noroeste 31 Noroeste 0 -- -- 74
2020-03-09 01:00:00 8.8 20 Noroeste 37 Noroeste 0 -- -- 76
2020-03-09 00:00:00 9.6 18 Noroeste 31 Oeste 0 -- -- 75
2020-03-08 23:00:00 10.3 10 Noroeste 21 Noroeste 0 -- -- 74
2020-03-08 22:00:00 11.1 10 Noroeste 17 Noroeste 0 -- -- 71
2020-03-08 21:00:00 10.4 4 Oeste 11 Noroeste 0 -- -- 68
2020-03-08 20:00:00 11.2 3 Oeste 10 Oeste 0 -- -- 63
2020-03-08 19:00:00 12.5 8 Oeste 17 Oeste 0 -- -- 60
2020-03-08 18:00:00 14.6 12 Oeste 22 Sudoeste 0 -- -- 55
2020-03-08 17:00:00 14.4 11 Oeste 30 Oeste 0 -- -- 50
2020-03-08 16:00:00 14 25 Oeste 36 Oeste 0 -- -- 52
2020-03-08 15:00:00 14.4 20 Noroeste 37 Oeste 0 -- -- 54
2020-03-08 14:00:00 13.1 23 Noroeste 40 Oeste 0 -- -- 57
2020-03-08 13:00:00 11.7 19 Oeste 40 Oeste 0 -- -- 67
2020-03-08 12:00:00 10.9 21 Oeste 33 Noroeste 0 -- -- 68
2020-03-08 11:00:00 9.7 19 Oeste 34 Oeste 0 -- -- 71
2020-03-08 10:00:00 6.6 12 Oeste 17 Oeste 0 -- -- 90
2020-03-08 09:00:00 4.6 7 Oeste 10 Oeste 0 -- -- 93
2020-03-08 08:00:00 3.6 3 Noroeste 11 Oeste 0 -- -- 92
2020-03-08 07:00:00 3.8 6 Oeste 12 Oeste 0 -- -- 90
2020-03-08 06:00:00 3.7 6 Noroeste 13 Oeste 0 -- -- 94
2020-03-08 05:00:00 4.4 4 Oeste 13 Noroeste 0 -- -- 88
2020-03-08 04:00:00 5.2 4 Oeste 14 Noroeste 0 -- -- 88
2020-03-08 03:00:00 4.9 3 Oeste 10 Oeste 0 -- -- 91
2020-03-08 02:00:00 4.8 8 Oeste 16 Noroeste 0 -- -- 92
2020-03-08 01:00:00 5.2 13 Oeste 23 Oeste 0 -- -- 90
2020-03-08 00:00:00 5.3 21 Oeste 30 Oeste 0 -- -- 89
2020-03-07 23:00:00 7.7 16 Noroeste 33 Oeste 0 -- -- 77
2020-03-07 22:00:00 8 22 Noroeste 40 Noroeste 0 -- -- 76
2020-03-07 21:00:00 8.4 23 Noroeste 44 Noroeste 0 -- -- 75
2020-03-07 20:00:00 8.4 23 Noroeste 43 Noroeste 0 -- -- 80
2020-03-07 19:00:00 9.5 29 Noroeste 44 Noroeste 0 -- -- 75
2020-03-07 18:00:00 10.7 23 Oeste 45 Oeste 0 -- -- 69
2020-03-07 17:00:00 11.4 30 Oeste 47 Oeste 0 -- -- 67
2020-03-07 16:00:00 12.5 26 Noroeste 55 Oeste 0 -- -- 64
2020-03-07 15:00:00 12.6 26 Noroeste 51 Noroeste 0 -- -- 61
2020-03-07 14:00:00 12.1 28 Noroeste 53 Oeste 0 -- -- 64
2020-03-07 13:00:00 10.5 32 Oeste 62 Oeste 0 -- -- 70
2020-03-07 12:00:00 9.9 28 Oeste 56 Oeste 0 -- -- 73
2020-03-07 11:00:00 8.9 27 Noroeste 50 Oeste 0 -- -- 79
2020-03-07 10:00:00 6.5 27 Oeste 48 Oeste 0 -- -- 89
2020-03-07 09:00:00 5 30 Oeste 44 Oeste 0 -- -- 90
2020-03-07 08:00:00 3.9 29 Oeste 45 Oeste 0 -- -- 92
2020-03-07 07:00:00 2.9 27 Oeste 43 Oeste 0 -- -- 93
2020-03-07 06:00:00 3.6 24 Oeste 43 Oeste 0 -- -- 90
2020-03-07 05:00:00 3.4 23 Oeste 46 Oeste 0 -- -- 91
2020-03-07 04:00:00 3.4 27 Oeste 40 Noroeste 0 -- -- 92
2020-03-07 03:00:00 3.3 22 Oeste 41 Noroeste 0 -- -- 92
2020-03-07 02:00:00 3 22 Oeste 35 Oeste 0 -- -- 93
2020-03-07 01:00:00 3.5 18 Oeste 40 Oeste 0 -- -- 88
2020-03-07 00:00:00 3.2 20 Oeste 55 Oeste 0 -- -- 90
2020-03-06 23:00:00 3.1 30 Oeste 52 Noroeste 0 -- -- 93
2020-03-06 22:00:00 3.3 22 Oeste 44 Oeste 0 -- -- 91
2020-03-06 21:00:00 3.4 26 Oeste 58 Oeste 1.2 -- -- 91
2020-03-06 20:00:00 3.6 26 Noroeste 51 Oeste 0.4 -- -- 90
2020-03-06 19:00:00 4 28 Oeste 46 Oeste 0 -- -- 86
2020-03-06 18:00:00 3.8 24 Oeste 56 Oeste 0.2 -- -- 90
2020-03-06 17:00:00 4.2 40 Oeste 68 Oeste 0 -- -- 83
2020-03-06 16:00:00 6.1 38 Oeste 71 Oeste 0 -- -- 71
2020-03-06 15:00:00 5.6 33 Noroeste 72 Oeste 0 -- -- 76
2020-03-06 14:00:00 7 35 Oeste 71 Oeste 0.2 -- -- 65
2020-03-06 13:00:00 6.1 33 Noroeste 71 Oeste 0 -- -- 68
2020-03-06 12:00:00 7.1 40 Oeste 73 Oeste 0 -- -- 65
2020-03-06 11:00:00 6.5 32 Oeste 59 Oeste 0 -- -- 68
2020-03-06 10:00:00 5.8 27 Oeste 48 Oeste 0 -- -- 80
2020-03-06 09:00:00 4.7 23 Oeste 44 Oeste 0 -- -- 83
2020-03-06 08:00:00 5.3 18 Oeste 28 Oeste 0 -- -- 80
2020-03-06 07:00:00 4.4 8 Oeste 12 Oeste 0 -- -- 82
2020-03-06 06:00:00 4.1 5 Oeste 17 Oeste 0 -- -- 82
2020-03-06 05:00:00 3.7 0 Calma 15 Noroeste 0 -- -- 82
2020-03-06 04:00:00 3.7 7 Oeste 24 Noroeste 0 -- -- 83
2020-03-06 03:00:00 4.1 10 Oeste 22 Oeste 0 -- -- 83
2020-03-06 02:00:00 5.6 15 Oeste 34 Oeste 0 -- -- 76
2020-03-06 01:00:00 5.9 20 Noroeste 36 Noroeste 0 -- -- 75
2020-03-06 00:00:00 6.2 19 Noroeste 36 Noroeste 0 -- -- 73
2020-03-05 23:00:00 -- -- -- -- -- -- -- -- --
2020-03-05 22:00:00 6.8 21 Noroeste 39 Noroeste 0 -- -- 67
2020-03-05 21:00:00 7.4 18 Noroeste 40 Noroeste 0 -- -- 72
2020-03-05 20:00:00 8.6 23 Noroeste 47 Oeste 0 -- -- 66
2020-03-05 19:00:00 9.4 25 Noroeste 40 Noroeste 0 -- -- 66
2020-03-05 18:00:00 9.5 16 Noroeste 40 Noroeste 0 -- -- 79
2020-03-05 17:00:00 12.3 24 Noroeste 52 Noroeste 0 -- -- 61
2020-03-05 16:00:00 13.7 25 Noroeste 51 Noroeste 0 -- -- 57
2020-03-05 15:00:00 14 26 Noroeste 45 Noroeste 0 -- -- 59
2020-03-05 14:00:00 13.6 24 Noroeste 66 Oeste 0 -- -- 70
2020-03-05 13:00:00 13.8 42 Oeste 62 Oeste 0 -- -- 70
2020-03-05 12:00:00 14.1 26 Sudoeste 39 Sudoeste 0 -- -- 68
2020-03-05 11:00:00 13.5 19 Sudoeste 34 Sudoeste 0 -- -- 71
2020-03-05 10:00:00 12.2 22 Oeste 33 Sudoeste 0 -- -- 74
2020-03-05 09:00:00 11.2 7 Este 12 Nordeste 0 -- -- 76
2020-03-05 08:00:00 10.4 9 Este 14 Este 0 -- -- 82
2020-03-05 07:00:00 11.1 7 Nordeste 17 Nordeste 0 -- -- 78
2020-03-05 06:00:00 9.7 12 Este 15 Este 0 -- -- 84
2020-03-05 05:00:00 9.2 7 Nordeste 10 Este 0 -- -- 84
2020-03-05 04:00:00 9 5 Este 9 Este 0 -- -- 85
2020-03-05 03:00:00 9.6 6 Este 10 Nordeste 0 -- -- 83
2020-03-05 02:00:00 10.4 7 Nordeste 8 Nordeste 0 -- -- 79
2020-03-05 01:00:00 11.4 5 Este 8 Nordeste 0 -- -- 76
2020-03-05 00:00:00 11.3 5 Este 8 Este 0 -- -- 77
2020-03-04 23:00:00 12.1 4 Sudoeste 16 Oeste 0 -- -- 75
2020-03-04 22:00:00 12.1 10 Oeste 17 Oeste 0 -- -- 76
2020-03-04 21:00:00 12.6 9 Oeste 13 Oeste 0 -- -- 80
2020-03-04 20:00:00 14.5 2 Noroeste 8 Noroeste 0 -- -- 71
2020-03-04 19:00:00 15.6 4 Noroeste 19 Noroeste 0 -- -- 68
2020-03-04 18:00:00 17 12 Noroeste 24 Oeste 0 -- -- 63
2020-03-04 17:00:00 17.2 15 Noroeste 37 Oeste 0 -- -- 61
2020-03-04 16:00:00 16.9 24 Oeste 41 Oeste 0 -- -- 62
2020-03-04 15:00:00 16.1 23 Oeste 35 Oeste 0 -- -- 67
2020-03-04 14:00:00 14.4 21 Oeste 35 Oeste 0 -- -- 74
2020-03-04 13:00:00 13.2 25 Oeste 35 Oeste 0 -- -- 78
2020-03-04 12:00:00 11.9 19 Oeste 31 Oeste 0 -- -- 79
2020-03-04 11:00:00 10.6 12 Oeste 18 Oeste 0 -- -- 84
2020-03-04 10:00:00 9.2 6 Oeste 9 Oeste 0 -- -- 85
2020-03-04 09:00:00 8.1 3 Sudoeste 6 Noroeste 0 -- -- 85
2020-03-04 08:00:00 6.8 6 Noroeste 10 Oeste 0 -- -- 88
2020-03-04 07:00:00 6.4 7 Noroeste 12 Oeste 0 -- -- 90
2020-03-04 06:00:00 6.3 10 Oeste 12 Oeste 0.2 -- -- 90
2020-03-04 05:00:00 6.2 7 Noroeste 12 Oeste 0 -- -- 88
2020-03-04 04:00:00 7.5 10 Oeste 20 Noroeste 0 -- -- 80
2020-03-04 03:00:00 6 13 Oeste 20 Noroeste 0 -- -- 88
2020-03-04 02:00:00 7.9 12 Noroeste 24 Noroeste 0 -- -- 77
2020-03-04 01:00:00 8 15 Noroeste 31 Noroeste 0 -- -- 77
2020-03-04 00:00:00 8.1 16 Noroeste 28 Noroeste 0 -- -- 76
2020-03-03 23:00:00 8.5 18 Noroeste 40 Noroeste 0 -- -- 75
2020-03-03 22:00:00 9.2 23 Noroeste 42 Noroeste 0 -- -- 72
2020-03-03 21:00:00 9.8 23 Noroeste 42 Noroeste 0 -- -- 70
2020-03-03 20:00:00 10.4 24 Noroeste 61 Oeste 0 -- -- 70
2020-03-03 19:00:00 12 36 Oeste 69 Noroeste 0 -- -- 62
2020-03-03 18:00:00 12.9 27 Noroeste 53 Noroeste 0 -- -- 61
2020-03-03 17:00:00 13.2 21 Noroeste 40 Noroeste 0 -- -- 66
2020-03-03 16:00:00 13.6 19 Noroeste 41 Oeste 0 -- -- 68
2020-03-03 15:00:00 12.6 18 Oeste 28 Noroeste 0 -- -- 67
2020-03-03 14:00:00 11.8 7 Este 23 Este 0 -- -- 75
2020-03-03 13:00:00 10.3 13 Este 20 Este 0 -- -- 84
2020-03-03 12:00:00 8.9 3 Sudeste 9 Oeste 0 -- -- 88
2020-03-03 11:00:00 5.6 6 Sudoeste 13 Sur 0.4 -- -- 88
2020-03-03 10:00:00 4.5 5 Sudeste 9 Sur 1.2 -- -- 92
2020-03-03 09:00:00 3.8 0 Calma 9 Oeste 1.4 -- -- 87
2020-03-03 08:00:00 4 8 Oeste 10 Oeste 0.2 -- -- 82
2020-03-03 07:00:00 4.2 4 Oeste 7 Oeste 0 -- -- 70
2020-03-03 06:00:00 3.4 0 Calma 8 Oeste 0 -- -- 74
2020-03-03 05:00:00 2.6 0 Calma 6 Oeste 0 -- -- 77
2020-03-03 04:00:00 2.3 5 Oeste 14 Oeste 0 -- -- 79
2020-03-03 03:00:00 2.4 10 Oeste 17 Noroeste 0 -- -- 80
2020-03-03 02:00:00 3.8 12 Noroeste 25 Noroeste 0 -- -- 75
2020-03-03 01:00:00 3.7 13 Noroeste 26 Noroeste 0 -- -- 77
2020-03-03 00:00:00 3.6 15 Noroeste 29 Noroeste 0 -- -- 79
2020-03-02 23:00:00 3.7 10 Oeste 32 Noroeste 0 -- -- 78
2020-03-02 22:00:00 4.7 23 Noroeste 48 Noroeste 0 -- -- 72
2020-03-02 21:00:00 4.2 19 Oeste 40 Oeste 0 -- -- 75
2020-03-02 20:00:00 5 21 Oeste 53 Oeste 0 -- -- 71
2020-03-02 19:00:00 5.9 24 Oeste 53 Noroeste 0 -- -- 64
2020-03-02 18:00:00 7.7 32 Noroeste 59 Oeste 0 -- -- 56
2020-03-02 17:00:00 9 31 Noroeste 59 Oeste 0 -- -- 55
2020-03-02 16:00:00 9.1 27 Noroeste 55 Oeste 0 -- -- 56
2020-03-02 15:00:00 8.7 22 Noroeste 57 Oeste 0 -- -- 61
2020-03-02 14:00:00 9 37 Oeste 58 Noroeste 0 -- -- 58
2020-03-02 13:00:00 8.2 32 Oeste 57 Noroeste 0 -- -- 64
2020-03-02 12:00:00 8.4 33 Oeste 59 Oeste 0 -- -- 68
2020-03-02 11:00:00 7.4 31 Oeste 48 Noroeste 0 -- -- 76
2020-03-02 10:00:00 6.6 27 Oeste 64 Oeste 1.2 -- -- 88
2020-03-02 09:00:00 7.3 36 Oeste 58 Oeste 0.6 -- -- 85
2020-03-02 08:00:00 7 19 Oeste 43 Oeste 0 -- -- 90
2020-03-02 07:00:00 7.2 24 Noroeste 71 Noroeste 1.8 -- -- 92
2020-03-02 06:00:00 13.9 45 Oeste 70 Sudoeste 0 -- -- 65
2020-03-02 05:00:00 14.1 31 Oeste 46 Sudoeste 0 -- -- 65
2020-03-02 04:00:00 14 32 Sudoeste 53 Oeste 0 -- -- 66
2020-03-02 03:00:00 14 35 Oeste 57 Oeste 0 -- -- 65
2020-03-02 02:00:00 13.9 26 Sudoeste 48 Oeste 0 -- -- 67
2020-03-02 01:00:00 13 18 Sudoeste 32 Sudoeste 0 -- -- 70
2020-03-02 00:00:00 13.3 20 Sudoeste 33 Sudoeste 0.2 -- -- 68